{"data":{"norad_id":48791,"intl_designator":"2021-045AA","name":"ONEWEB-0212","alt_names":[],"object_type":"PAYLOAD","status":"ACTIVE","operator":null,"country":"UK","launch_date":"2021-05-28","launch_site_code":"VOSTO","launch_vehicle":null,"mission":null,"orbit_class":"UNKNOWN","rcs_meters":null,"size_class":null,"mass_kg":null,"dimensions":null,"purposes":["comms"],"wikipedia_slug":null,"has_3d_model":false,"image_url":null,"decayed_at":null,"tle_current":{"epoch":"2026-05-24T16:59:48.499008Z","epoch_age_seconds":96464,"freshness":"FRESH","line1":"1 48791U 21045AA  26144.70820022  .00000067  00000+0  14406-3 0  9999","line2":"2 48791  87.8999 263.8646 0001886 101.9484 258.1858 13.15547760241346","mean_motion":13.1554776,"eccentricity":0.0001886,"inclination_deg":87.8999,"raan_deg":263.8646,"arg_perigee_deg":101.9484,"mean_anomaly_deg":258.1858,"bstar":0.00014406,"rev_number":24134,"period_min":109.46010808456,"perigee_km":1200.3442308258,"apogee_km":1203.2033731804,"semimajor_km":7579.9108020031,"source":"CELESTRAK","updated_at":"2026-05-25T13:38:22.446658Z"}}}